This information is not intended to be used as official crime data. This program does not provide information about all crimes, and excludes specific incidents such as sexual assaults and child abuse.

Disclaimer: The Jacksonville Sheriff's Office makes every effort to produce and publish current and accurate information. No warranties, expressed or implied, are provided for the data herein, its use, or its interpretation. The services provided are for informational purposes only and should not be relied on for any type of legal action.

Note: Calls in red are active.

Last refreshed 11/24 06:47:54

Incident # Dispatched Block Address Signal Call Description Comments
141124815496 11-24 06:16 8700 SOUTHSIDE BLVD 14C VANDALISM CONVEYANCE
141124815497 11-24 06:13 2400 LAKE SHORE BLVD 32 BURGLAR ALARM - AUDIBLE
141124815498 11-24 06:12 100 E MATHEWS BRG 16 ROAD OBSTRUCTION
141124815493 11-24 06:05 6900 ALTAMA RD 32S BURGLAR ALARM - SILENT
141124815490 11-24 06:01 5000 CLEVELAND RD 63 DISPUTE
141124815484 11-24 05:57 S I95 EXPWY AND W CHURCH ST 4 AUTO CRASH
141124815487 11-24 05:57 S I295 EXPWY AND 103RD ST 4 AUTO CRASH
141124815486 11-24 05:55 1500 BELVEDERE AVE 76 ASSIST OTHER AGENCY
141124815485 11-24 05:52 2400 TEBASSA RD 32 BURGLAR ALARM - AUDIBLE
141124815482 11-24 05:48 N I95 EXPWY AND W BAY ST 96 ASSIST MOTORIST
141124815477 11-24 05:41 1900 GREENWOOD AVE 32 BURGLAR ALARM - AUDIBLE
141124815479 11-24 05:39 7400 LINDA DR 0 63 ARMED DISPUTE
141124815478 11-24 05:35 NORMANDY BLVD AND LENOX AVE 4 53 TRAFFIC CRASH PERSON INJURED
141124815458 11-24 05:34 100 W 7TH ST 8 MISSING PERSON
141124815475 11-24 05:33 N MYRTLE AVE AND GROTHE ST 37 UNVERIFIED 911 CALL
141124815473 11-24 05:31 1200 GROTHE ST 63 DISPUTE
141124815472 11-24 05:31 OAK ST AND STOCKTON ST 13 SUSPICIOUS PERSON
141124815471 11-24 05:25 100 S JACKSON AVE 1066 CANCEL
141124815466 11-24 05:11 3900 ATLANTIC BLVD 37 UNVERIFIED 911 CALL
141124815464 11-24 05:10 3800 W UNIVERSITY BLVD 32 BURGLAR ALARM - AUDIBLE
141124815463 11-24 05:03 1400 INGLESIDE AVE 27 MENTALLY ILL PERSON
141124815461 11-24 05:01 8000 NOROAD 22 DOMESTIC DISTURBANCE
141124815460 11-24 05:00 7700 NORMANDY BLVD 13 SUSPICIOUS PERSON
141124815459 11-24 04:57 OLD ST AUGUSTINE RD AND S I95 EXPWY 1 IMPAIRED/RECKLESS DRIVER
141124815457 11-24 04:54 2400 TEBASSA RD 32 BURGLAR ALARM - AUDIBLE
141124815456 11-24 04:49 2100 W 41ST ST 20 PROWLER/PEEPING TOM
141124815455 11-24 04:42 8400 IRON MILL CT 32X SILENT ALARM (ROBBERY PANIC OR AWARE)
141124815454 11-24 04:41 700 DUVAL STATION RD 32 BURGLAR ALARM - AUDIBLE
141124815448 11-24 04:28 1200 S TURTLE CREEK DR 63 DISPUTE
141124815447 11-24 04:25 1600 N LIBERTY ST 32 BURGLAR ALARM - AUDIBLE
141124815443 11-24 04:15 1500 MONUMENT RD 76 ASSIST OTHER AGENCY
141124815441 11-24 04:12 1500 FLAGLER AVE 64 NOISE COMPLAINT
141124815436 11-24 04:01 7200 LAWN TENNIS LN 27 MENTALLY ILL PERSON
141124815435 11-24 03:58 5800 W 5TH ST 32 BURGLAR ALARM - AUDIBLE
141124815432 11-24 03:57 S I95 EXPWY AND ZOO PKWY 4 53 TRAFFIC CRASH PERSON INJURED
141124815429 11-24 03:51 3100 DUNN AVE 32 BURGLAR ALARM - AUDIBLE
141124815426 11-24 03:50 5100 COLLINS RD 64 NOISE COMPLAINT
141124815424 11-24 03:36 1800 N STANFORD RD 76 ASSIST OTHER AGENCY
141124815422 11-24 03:33 J TURNER BUTLER BLVD AND S I295 EXPWY 16 ROAD OBSTRUCTION
141124815420 11-24 03:27 9000 LEICESTERSHIRE CT 8 MISSING PERSON
141124815398 11-24 03:21 6800 BEACH BLVD 32 BURGLAR ALARM - AUDIBLE
141124815414 11-24 03:20 5300 N MAIN ST 32 BURGLAR ALARM - AUDIBLE
141124815412 11-24 03:18 400 S JAX ESTATES DR 1066 CANCEL
141124815411 11-24 03:17 200 MARISCO WAY 22 DOMESTIC DISTURBANCE
141124815405 11-24 03:02 2000 WOODSIDE ST 98 THROWING MISSILES
141124815402 11-24 03:00 11100 SAN JOSE BLVD 32 BURGLAR ALARM - AUDIBLE
141124815400 11-24 02:54 9900 NEW KINGS RD 3 HIT AND RUN CRASH
141124815399 11-24 02:53 1000 GOLFAIR BLVD 2 63 DISPUTE INVOLVING ALCOHOL
141124815387 11-24 02:49 N I295 EXPWY AND J TURNER BUTLER BLVD 16 ROAD OBSTRUCTION
141124815379 11-24 02:46 9900 NEW KINGS RD 63 DISPUTE
141124815393 11-24 02:42 5000 QUAN DR 0 63 ARMED DISPUTE
141124815377 11-24 02:40 10200 RIVER MARSH DR 32 BURGLAR ALARM - AUDIBLE
141124815372 11-24 02:30 9700 TAPESTRY PARK CIR 32 BURGLAR ALARM - AUDIBLE
141124815381 11-24 02:29 1700 ACADEMY ST 22 DOMESTIC DISTURBANCE
141124815373 11-24 02:18 5800 THURGOOD LN 63 DISPUTE
141124815312 11-24 02:06 900 BRIDIER ST 2 63 DISPUTE INVOLVING ALCOHOL
141124815362 11-24 01:58 1900 W BEAVER ST 32 BURGLAR ALARM - AUDIBLE
141124815359 11-24 01:57 6800 ARLINGTON EXPWY 9 THEFT
141124815358 11-24 01:56 103RD ST AND S I295 EXPWY 12 RECKLESS DRIVER
141124815310 11-24 01:54 500 FERN ST 11 ABANDONED VEHICLE
141124815343 11-24 01:53 800 DUNN AVE 32 BURGLAR ALARM - AUDIBLE
141124815329 11-24 01:50 9800 W BEAVER ST 63 DISPUTE
141124815353 11-24 01:49 8000 PARENTAL CIR 88 ASSAULT
141124815347 11-24 01:45 4900 MONROE SMITH RD 63 DISPUTE
141124815317 11-24 01:42 3600 COLLEGE ST 8 MISSING PERSON
141124815341 11-24 01:38 12200 NORMANDY BLVD 22 DOMESTIC DISTURBANCE
141124815337 11-24 01:37 9700 TAPESTRY PARK CIR 76 ASSIST OTHER AGENCY
141124815327 11-24 01:33 4400 S MARSH HAWK DR 64 NOISE COMPLAINT
141124815333 11-24 01:33 DUVAL RD AND BISCAYNE BLVD 96 ASSIST MOTORIST
141124815328 11-24 01:30 7000 S OLD KINGS RD 13 SUSPICIOUS PERSON
141124815325 11-24 01:23 6300 COLLINS RD 13 SUSPICIOUS PERSON
141124815323 11-24 01:22 8200 PHILLIPS HWY 76 ASSIST OTHER AGENCY
141124815299 11-24 01:21 600 BEECHWOOD ST 32 BURGLAR ALARM - AUDIBLE
141124815320 11-24 01:19 2700 CESERY BLVD 1066 CANCEL
141124815318 11-24 01:18 1400 W 15TH ST 2 63 DISPUTE INVOLVING ALCOHOL
141124815314 11-24 01:13 10400 S WINDFERN CT 22 DOMESTIC DISTURBANCE
141124815316 11-24 01:13 9000 DEL WEBB PKWY 32 BURGLAR ALARM - AUDIBLE
141124815313 11-24 01:12 1500 LARUE AVE 63 DISPUTE
141124815311 11-24 01:10 8000 PIPIT AVE 76 ASSIST OTHER AGENCY
141124815306 11-24 01:09 11100 BRADD AVE 49 REPORT TO HOSPITAL
141124815297 11-24 01:08 1000 BERT RD 2 63 DISPUTE INVOLVING ALCOHOL
141124815307 11-24 01:07 200 W UNION ST 60 SUICIDE OR ATTEMPT
141124815303 11-24 01:04 2900 DELLWOOD AVE 63 DISPUTE
141124815295 11-24 00:58 1200 GROTHE ST 63 DISPUTE
141124815292 11-24 00:57 5300 COLLINS RD 32 BURGLAR ALARM - AUDIBLE
141124815287 11-24 00:56 7500 S SHARBETH DR 64 NOISE COMPLAINT
141124815291 11-24 00:55 12600 BLACK ANGUS DR 2 22 DOMESTIC DISTURBANCE
141124815289 11-24 00:54 7300 N MAIN ST 21BJ BURGLARY BUSINESS JUST OCCURRED
141124815278 11-24 00:50 1000 N ST JOHNS BLUFF RD 32 BURGLAR ALARM - AUDIBLE
141124815275 11-24 00:49 13400 BEACH BLVD 56 JUVENILE COMPLAINT
141124815283 11-24 00:48 7200 N RIDGEWAY RD 63 DISPUTE
141124815279 11-24 00:48 3200 UNIVERSITY BLVD 14RJ VANDALISM RESIDENCE JUST OCCURRED
141124815274 11-24 00:43 2600 UNIVERSITY BLVD 88 ASSAULT
141124815265 11-24 00:42 7000 S OLD KINGS RD 88 ASSAULT
141124815272 11-24 00:39 11100 BEACH BLVD 32 BURGLAR ALARM - AUDIBLE
141124815269 11-24 00:35 5500 ROOSEVELT BLVD 32 BURGLAR ALARM - AUDIBLE
141124815268 11-24 00:35 12500 PHILLIPS HWY 63 DISPUTE
141124815263 11-24 00:27 1300 W CARLOTTA RD 21R BURGLARY RESIDENCE
141124815264 11-24 00:27 2700 PARK ST 9J THEFT JUST OCCURRED
141124815259 11-24 00:25 11700 PALM LAKE DR 64 NOISE COMPLAINT
141124815249 11-24 00:24 3800 NOTTER AVE 22 DOMESTIC DISTURBANCE
141124815243 11-24 00:16 3500 SMITHFIELD ST 2 22 DOMESTIC DISTURBANCE
141124815250 11-24 00:15 S UNIVERSITY BLVD AND CORONET LN 12 RECKLESS DRIVER
141124815242 11-24 00:13 8200 DIX ELLIS TRL 63 DISPUTE
141124815241 11-24 00:09 8300 DELAWARE AVE 1066 CANCEL
141124815240 11-24 00:06 900 BERT RD 64 NOISE COMPLAINT
141124815238 11-24 00:05 200 W STATE ST 2 63 DISPUTE INVOLVING ALCOHOL
141124815233 11-24 00:02 BLANDING BLVD AND YOUNGERMAN CIR 0 60 SUICIDE THREAT W/WEAPON
141124815231 11-24 00:01 11500 N SUMMER TREE RD 10 AUTO THEFT
141123815213 11-23 23:54 1900 CREEKVIEW CT 60 SUICIDE OR ATTEMPT
141123815222 11-23 23:53 1200 CARTHAGE DR 1066 CANCEL
141123815217 11-23 23:53 4600 S LENOIR AVE 2 63 DISPUTE INVOLVING ALCOHOL
141123815226 11-23 23:52 8200 KONA AVE 64 NOISE COMPLAINT
141123815221 11-23 23:48 1900 W 24TH ST 63 DISPUTE
141123815216 11-23 23:47 BROOK FOREST DR AND GOLFBROOK DR 64 NOISE COMPLAINT
141123815211 11-23 23:43 6300 FABIAN DR 63 DISPUTE
141123815208 11-23 23:40 9100 ADAMS AVE 6388 DISPUTE WITH ASSAULT
141123815206 11-23 23:36 N PEARL ST AND W 61ST ST 13 SUSPICIOUS PERSON
141123815197 11-23 23:36 5100 INDIAN LAKES CT 63 DISPUTE
141123815205 11-23 23:35 12200 PRESIDENTS CT 37 UNVERIFIED 911 CALL
141123815192 11-23 23:35 SOUTHSIDE BLVD AND BAYMEADOWS RD 98 THROWING MISSILES
141123815195 11-23 23:31 4900 S FULHAM RD 22 DOMESTIC DISTURBANCE
141123815188 11-23 23:29 700 EAVERSON ST 64 NOISE COMPLAINT
141123815182 11-23 23:25 300 W ASHLEY ST 63 DISPUTE
141123815176 11-23 23:18 9700 BAYMEADOWS RD 32 BURGLAR ALARM - AUDIBLE
141123815172 11-23 23:16 3400 SALAND WAY 63 DISPUTE
141123815127 11-23 23:14 200 LAMSON ST 3 HIT AND RUN CRASH
141123815167 11-23 23:11 8200 DELAWARE AVE 16 ROAD OBSTRUCTION
141123815158 11-23 23:10 DELAWARE AVE AND LAKE FOREST BLVD 4 AUTO CRASH
141123815162 11-23 23:07 500 E BAY ST 8 MISSING PERSON
141123815153 11-23 23:06 4400 E JADE DR 63 DISPUTE
141123815156 11-23 23:01 2900 STRICKLAND ST 32 BURGLAR ALARM - AUDIBLE
141123815147 11-23 22:55 4700 WALGREEN RD 32 BURGLAR ALARM - AUDIBLE
141123815142 11-23 22:52 600 E 56TH ST 2 DRUNK PERSON
141123815135 11-23 22:51 13700 OLD ST AUGUSTINE RD 56 JUVENILE COMPLAINT
141123815139 11-23 22:50 BETHEL CT AND SAN DIEGO RD 13 SUSPICIOUS PERSON
141123815138 11-23 22:50 11700 BISCAYNE BLVD 63 DISPUTE
141123815133 11-23 22:47 7200 GOLDEN WINGS RD 32 BURGLAR ALARM - AUDIBLE
141123815121 11-23 22:47 6300 MORSE AVE 63 DISPUTE
141123815128 11-23 22:47 8000 ATLANTIC BLVD 76 ASSIST OTHER AGENCY
141123815129 11-23 22:46 8600 DIE HARD LN 1066 CANCEL
141123815111 11-23 22:44 5900 FT CAROLINE RD 22 DOMESTIC DISTURBANCE
141123815116 11-23 22:41 GALVESTON AVE AND MILL CREEK RD 12 RECKLESS DRIVER
141123815100 11-23 22:41 8200 DANDY AVE 33 DISCHARGING OF FIREARM
141123815119 11-23 22:41 1800 SILVER ST 21C BURGLARY CONVEYANCE
141123815076 11-23 22:40 4600 MONCRIEF RD 63 DISPUTE
141123815112 11-23 22:40 1600 MARGARET ST 63 DISPUTE
141123815104 11-23 22:36 SEABOARD AVE AND TIMUQUANA RD 33 DISCHARGING OF FIREARM
141123815098 11-23 22:35 2500 POST ST 64 NOISE COMPLAINT
141123815097 11-23 22:35 1600 NOCATEE AVE 76 ASSIST OTHER AGENCY
141123815094 11-23 22:34 7200 LAWN TENNIS LN 79 OBSCENE OR THREATENING COMM
141123815055 11-23 22:34 9500 ARGYLE FOREST BLVD 63 DISPUTE
141123815088 11-23 22:32 3200 HODGES BLVD 1066 CANCEL
141123815089 11-23 22:31 5900 FT CAROLINE RD 32 BURGLAR ALARM - AUDIBLE
141123815092 11-23 22:30 DUNN AVE AND BISCAYNE BLVD 56 JUVENILE COMPLAINT
141123815086 11-23 22:26 600 BEECHWOOD ST 32 BURGLAR ALARM - AUDIBLE
141123815085 11-23 22:26 7700 INDIA AVE 88P ASSAULT IN PROGRESS
141123815083 11-23 22:25 2500 JESSICA LN 22 DOMESTIC DISTURBANCE
141123815068 11-23 22:25 2100 BURGOYNE DR 1066 CANCEL
141123815061 11-23 22:25 7700 LEM TURNER RD 32 BURGLAR ALARM - AUDIBLE
141123815077 11-23 22:21 400 S LANE AVE 80 PROSTITUTION (ONLY)
141123815075 11-23 22:21 JOOS RD AND JONES RD 12 RECKLESS DRIVER
141123815031 11-23 22:19 500 S LANE AVE 2288 DOMESTIC DISPUTE WITH/ASSAULT
141123815053 11-23 22:17 1600 BROOK FOREST DR 64 NOISE COMPLAINT
141123815026 11-23 22:16 6200 N SPRINKLE DR 1066 CANCEL
141123815040 11-23 22:16 600 CHESTNUT ST 73 DRUG INVESTIGATION
141123815030 11-23 22:10 6000 ARGYLE FOREST BLVD 4 AUTO CRASH
141123815042 11-23 22:10 BLANDING BLVD AND YOUNGERMAN CIR 3 HIT AND RUN CRASH
141123815059 11-23 22:08 N I95 EXPWY AND GOLFAIR BLVD 4 AUTO CRASH
141123815050 11-23 22:07 8400 W GATE PKWY 64 NOISE COMPLAINT
141123815054 11-23 22:07 2900 JUSTINA RD 8 27 MISSING MENTALLY ILL
141123815057 11-23 22:07 2400 SHERRINGTON ST 64 NOISE COMPLAINT
141123815056 11-23 22:07 3000 POWERS AVE 32 BURGLAR ALARM - AUDIBLE
141123815051 11-23 22:06 7000 HALLOCK ST 2288 DOMESTIC DISPUTE WITH/ASSAULT
141123815048 11-23 22:05 N MAIN ST AND E 18TH ST 64 NOISE COMPLAINT
141123815045 11-23 22:03 7000 HALLOCK ST 1066 CANCEL
141123815035 11-23 22:01 1600 W 45TH ST 5388 ASSAULT INVOLVING INJURY
141123815033 11-23 22:00 12800 RIDGEMORE LN 0 22 DOMESTIC DISTURBANCE W/WEAPON
141123815034 11-23 22:00 13800 N TIFFANY PINES CIR 63 DISPUTE
141123815025 11-23 21:57 1500 W 22ND ST 14CJ VANDALISM CONVEYANCE JUST OCCURRED
141123815024 11-23 21:56 1500 W 22ND ST 3388 DISCHARGING FIREARM AT PERSON
141123815023 11-23 21:55 5900 NEW KINGS RD 63 DISPUTE
141123815013 11-23 21:53 7200 NORMANDY BLVD 13 SUSPICIOUS PERSON
141123815019 11-23 21:52 7800 SYCAMORE ST 63 DISPUTE
141123815010 11-23 21:50 W 9TH ST AND SILVER ST 13 SUSPICIOUS PERSON
141123815015 11-23 21:49 5400 AMAZON AVE 13 SUSPICIOUS PERSON
141123815011 11-23 21:47 1700 BERMUDA RD 64 NOISE COMPLAINT
141123815012 11-23 21:47 4400 PHILLIPS HWY 64 NOISE COMPLAINT
141123815007 11-23 21:47 4300 DETAILLE DR 32 BURGLAR ALARM - AUDIBLE
141123815001 11-23 21:46 3800 NOTTER AVE 22 DOMESTIC DISTURBANCE
141123815004 11-23 21:41 4800 JAMMES RD 2 DRUNK PERSON
141123815002 11-23 21:40 800 CARROLLTON RD 63 DISPUTE
141123814999 11-23 21:40 1000 E 11TH ST 13 SUSPICIOUS PERSON
141123814995 11-23 21:35 3100 EMERSON ST 1 IMPAIRED/RECKLESS DRIVER
141123814947 11-23 21:35 1000 IBIS RD 32 BURGLAR ALARM - AUDIBLE
141123814984 11-23 21:34 10900 BURNT MILL RD 37 UNVERIFIED 911 CALL
141123814993 11-23 21:34 1600 KING ST 32 BURGLAR ALARM - AUDIBLE
141123814989 11-23 21:33 S MC DUFF AVE AND E I10 EXPWY 3 HIT AND RUN CRASH
141123814990 11-23 21:33 N I95 EXPWY AND GOLFAIR BLVD 96 ASSIST MOTORIST
141123814923 11-23 21:25 1200 CARTHAGE DR 32 BURGLAR ALARM - AUDIBLE
141123814971 11-23 21:23 6700 COLLINS RD 63 DISPUTE
141123814956 11-23 21:23 1100 PECAN CV 0 13 ARMED SUSPICIOUS PERSON
141123814963 11-23 21:21 14000 S CANYON FALLS DR 61 FIGHT
141123814970 11-23 21:20 1200 WINTHROP ST 76 ASSIST OTHER AGENCY
141123814958 11-23 21:19 1000 S US 301 HWY 80 PROSTITUTION (ONLY)
141123814965 11-23 21:17 6200 ARLINGTON EXPWY 88P ASSAULT IN PROGRESS
141123814964 11-23 21:16 N I295 EXPWY AND BAYMEADOWS RD 12 RECKLESS DRIVER
141123814916 11-23 21:15 1400 DUNN AVE 63 DISPUTE
141123814955 11-23 21:13 8400 CASSIE RD 13 SUSPICIOUS PERSON
141123814953 11-23 21:11 7900 E BAYMEADOWS CIR 33 DISCHARGING OF FIREARM
141123814950 11-23 21:07 5500 E LAKEWOOD CIR 76 ASSIST OTHER AGENCY
141123814937 11-23 21:02 1400 W 15TH ST 2 63 DISPUTE INVOLVING ALCOHOL
141123814940 11-23 21:02 7000 N MAIN ST 2 22 DOMESTIC DISTURBANCE
141123814941 11-23 21:02 3400 MARTHA ST 2 63 DISPUTE INVOLVING ALCOHOL
141123814939 11-23 21:01 1300 N BROAD ST 76 ASSIST OTHER AGENCY
141123814932 11-23 20:59 11100 MILLINGTON CT 22 DOMESTIC DISTURBANCE
141123814930 11-23 20:57 10900 LYDIA ESTATES DR 13 SUSPICIOUS PERSON
141123814895 11-23 20:55 1200 LUGAR ST 32 BURGLAR ALARM - AUDIBLE
141123814926 11-23 20:53 2500 JAMMES RD 63 DISPUTE
141123814907 11-23 20:52 5900 NORMANDY BLVD 1066 CANCEL
141123814919 11-23 20:50 1700 W 9TH ST 2 22 DOMESTIC DISTURBANCE
141123814917 11-23 20:50 11900 ATLANTIC BLVD 9P THEFT IN PROGRESS
141123814871 11-23 20:48 1800 E 11TH ST 63 DISPUTE
141123814913 11-23 20:47 2400 TEBASSA RD 32 BURGLAR ALARM - AUDIBLE
141123814908 11-23 20:45 5700 LA MOYA AVE 33 DISCHARGING OF FIREARM
141123814906 11-23 20:42 11900 BEACH BLVD 13 SUSPICIOUS PERSON
141123814898 11-23 20:41 6100 YOUNGERMAN CIR 63 DISPUTE
141123814891 11-23 20:39 S I295 EXPWY AND DUVAL RD 4 AUTO CRASH
141123814896 11-23 20:38 1000 BROWARD RD 63 DISPUTE
141123814861 11-23 20:38 N LAURA ST AND W 7TH ST 88 ASSAULT
141123814883 11-23 20:34 S I295 EXPWY AND DUVAL RD 4 AUTO CRASH
141123814862 11-23 20:32 400 WET ROCK LN 63 DISPUTE
141123814880 11-23 20:32 100 W UNION ST 2 63 DISPUTE INVOLVING ALCOHOL
141123814887 11-23 20:31 S CHAFFEE RD AND 103RDST EXIT SR23NB RP 4 53 TRAFFIC CRASH PERSON INJURED
141123814890 11-23 20:30 S I295 EXPWY AND DUNN AVE 4 AUTO CRASH
141123814885 11-23 20:29 1000 BROWARD RD 22 DOMESTIC DISTURBANCE
141123814878 11-23 20:28 103RD ST AND CECIL COMMERCE CENTER PKWY 4 AUTO CRASH
141123814882 11-23 20:28 1500 W UNIVERSITY BLVD 1066 CANCEL
141123814873 11-23 20:26 11500 HARTS RD 27 MENTALLY ILL PERSON
141123814875 11-23 20:26 11400 BEACH BLVD 13 SUSPICIOUS PERSON
141123814879 11-23 20:25 W BEAVER ST AND RAILROAD AVE 1 IMPAIRED/RECKLESS DRIVER
141123814874 11-23 20:25 13200 CITY STATION DR 3 HIT AND RUN CRASH
141123814807 11-23 20:20 OAKLEAF VILLAGE PKWY AND ARGYLE FOREST BLVD 3 HIT AND RUN CRASH
141123814849 11-23 20:19 4800 E TARA WOODS DR 22 DOMESTIC DISTURBANCE
141123814864 11-23 20:18 7000 MADRID AVE 32X SILENT ALARM (ROBBERY PANIC OR AWARE)
141123814863 11-23 20:17 E 27TH ST AND N MAIN ST 64 NOISE COMPLAINT
141123814829 11-23 20:17 1000 N ARLINGTON RD 63 DISPUTE
141123814859 11-23 20:13 7600 OWL RD 60 SUICIDE OR ATTEMPT
141123814845 11-23 20:13 6100 COLLINS RD 63 DISPUTE
141123814826 11-23 20:12 8600 COLLINS RD 13 SUSPICIOUS PERSON
141123814853 11-23 20:11 7900 MERRILL RD 4 AUTO CRASH
141123814827 11-23 20:11 W 8TH ST AND N MYRTLE AVE 1066 CANCEL
141123814852 11-23 20:11 6800 N HOLIDAY RD 2 22 DOMESTIC DISTURBANCE
141123814817 11-23 20:10 100 ACME ST 19 ANIMAL INVESTIGATION
141123814836 11-23 20:10 400 SAPELO RD 2288 DOMESTIC DISPUTE WITH/ASSAULT
141123814848 11-23 20:08 JESSE B SMITH CT AND WESTSIDE INDUSTRIAL DR 16 ROAD OBSTRUCTION
141123814839 11-23 20:07 100 E 19TH ST 10J AUTO THEFT JUST OCCURRED
141123814843 11-23 20:05 1800 W EDGEWOOD AVE 22 DOMESTIC DISTURBANCE
141123814841 11-23 20:02 N I295 EXPWY AND 103RD ST 4 53 TRAFFIC CRASH PERSON INJURED
141123814833 11-23 20:01 1400 E ROSE HILL DR 22 DOMESTIC DISTURBANCE
141123814835 11-23 19:58 1200 ARLINGTON RD N 27 MENTALLY ILL PERSON
141123814834 11-23 19:56 8800 ORME RD 63 DISPUTE
141123814831 11-23 19:54 7500 ORTEGA BLUFF PKWY 32X SILENT ALARM (ROBBERY PANIC OR AWARE)
141123814824 11-23 19:54 CARLISLE RD AND WAVERLY LN 13 SUSPICIOUS PERSON
141123814808 11-23 19:51 CRYSTAL SPRINGS RD AND CHAFFEE POINT BLVD 12 RECKLESS DRIVER
141123814803 11-23 19:50 7500 WHEAT RD 76 ASSIST OTHER AGENCY
141123814819 11-23 19:49 5200 PLAYPEN DR 22 DOMESTIC DISTURBANCE
141123814818 11-23 19:46 100 W UNION ST 2 63 DISPUTE INVOLVING ALCOHOL
141123814816 11-23 19:45 2800 MAPLEWOOD ST 13 SUSPICIOUS PERSON
141123814815 11-23 19:44 DUNN AVE AND BONNELLY DR 4 53 TRAFFIC CRASH PERSON INJURED
141123814813 11-23 19:43 1800 E 11TH ST 63 DISPUTE
141123814791 11-23 19:43 J TURNER BUTLER BLVD AND S SAN PABLO RD 96 ASSIST MOTORIST
141123814795 11-23 19:43 1200 W 3RD ST 60 SUICIDE OR ATTEMPT
141123814812 11-23 19:42 7600 LEAFY FOREST WAY 32 BURGLAR ALARM - AUDIBLE
141123814810 11-23 19:41 8400 BLANDING BLVD 32X SILENT ALARM (ROBBERY PANIC OR AWARE)
141123814797 11-23 19:40 E BEAVER ST AND N OCEAN ST 64 NOISE COMPLAINT
141123814806 11-23 19:39 7500 LEM TURNER RD 9J THEFT JUST OCCURRED
141123814805 11-23 19:37 ATLANTIC BLVD AND HODGES BLVD 4 AUTO CRASH
141123814783 11-23 19:34 4200 SUNBEAM RD 63 DISPUTE
141123814740 11-23 19:33 600 COLLEGE ST 63 DISPUTE
141123814747 11-23 19:33 500 S LANE AVE 2 63 DISPUTE INVOLVING ALCOHOL
141123814793 11-23 19:30 11700 FERN TREE DR 11 ABANDONED VEHICLE
141123814774 11-23 19:29 1200 LABELLE ST 61 FIGHT
141123814790 11-23 19:27 N EDGEWOOD AVE AND OLD KINGS RD 13 SUSPICIOUS PERSON
141123814619 11-23 19:27 5500 BARRINGTON CT 9 THEFT
141123814775 11-23 19:26 1600 BROOK FOREST DR 1066 CANCEL
141123814767 11-23 19:26 3100 HARTLEY RD 63 DISPUTE
141123814788 11-23 19:25 CARAVAN TRL AND ATLANTIC BLVD 4 53 TRAFFIC CRASH PERSON INJURED
141123814786 11-23 19:24 700 N LINCOLN CT 21C BURGLARY CONVEYANCE
141123814602 11-23 19:24 6500 NORMANDY BLVD 50 FOUND/ABANDONED PROPERTY
141123814780 11-23 19:21 6800 ELWOOD AVE 1066 CANCEL
141123814772 11-23 19:20 MAPLEWOOD ST AND LELAND ST 63 DISPUTE
141123814753 11-23 19:18 9000 SOUTHSIDE BLVD 1066 CANCEL
141123814768 11-23 19:15 1700 ESTANCIA AVE 76 ASSIST OTHER AGENCY
141123814690 11-23 19:15 5400 COLLINS RD 13 SUSPICIOUS PERSON
141123814741 11-23 19:13 8700 SOUTHSIDE BLVD 56 JUVENILE COMPLAINT
141123814758 11-23 19:13 500 WHITFIELD RD 14C VANDALISM CONVEYANCE
141123814764 11-23 19:13 700 ASSISI LN 76 ASSIST OTHER AGENCY
141123814726 11-23 19:11 BARRS ST AND RIVERSIDE AVE 4 AUTO CRASH
141123814760 11-23 19:10 1200 DUNN AVE 63 DISPUTE
141123814714 11-23 19:08 5700 JACKS RD 22 DOMESTIC DISTURBANCE
141123814754 11-23 19:08 12100 HOUSTON AVE 32 BURGLAR ALARM - AUDIBLE
141123814755 11-23 19:08 FREEDOM CROSSING TRL AND PHILLIPS HWY 76 ASSIST OTHER AGENCY
141123814756 11-23 19:07 100 W MATHEWS BRG 60 SUICIDE OR ATTEMPT
141123814688 11-23 19:07 3200 LENOX AVE 63 DISPUTE
141123814721 11-23 19:06 7800 103RD ST 4 AUTO CRASH
141123814717 11-23 19:06 UNIVERSITY BLVD AND CLIFTON AVE 38 TRAFFIC ASSIGNMENT
141123814752 11-23 19:06 600 BEECHWOOD ST 32 BURGLAR ALARM - AUDIBLE
141123814725 11-23 19:05 1200 E 7TH ST 0 63 ARMED DISPUTE
141123814724 11-23 19:05 PALAFOX ST AND W 12TH ST 61 FIGHT
141123814748 11-23 19:04 8200 CARAVELLE DR 33 DISCHARGING OF FIREARM
141123814681 11-23 19:03 6000 HILLMAN DR 88 ASSAULT
141123814744 11-23 19:03 800 VIRGINIA ST 2 63 DISPUTE INVOLVING ALCOHOL
141123814743 11-23 19:02 8800 EATON AVE 0 23HJ ARMED ROBBERY HOME INVASION JUST OCCURRED
141123814735 11-23 19:02 MARTIN LUTHER KING JR PKWY AND E 11TH ST 4 AUTO CRASH
141123814710 11-23 18:59 8200 TEATICKET DR 63 DISPUTE
141123814720 11-23 18:58 2900 TURNING LEAF LN 1066 CANCEL
141123814733 11-23 18:57 3100 CORTEZ RD 32X SILENT ALARM (ROBBERY PANIC OR AWARE)
141123814699 11-23 18:55 N I295 EXPWY AND E I10 EXPWY 4 AUTO CRASH
141123814716 11-23 18:55 3800 W ORLANDO CIR 1066 CANCEL
141123814677 11-23 18:54 100 W UNION ST 2 63 DISPUTE INVOLVING ALCOHOL
141123814617 11-23 18:54 3400 GEORGE RD 50 FOUND/ABANDONED PROPERTY
141123814722 11-23 18:54 BLANDING BLVD AND ARGYLE FOREST BLVD 4 AUTO CRASH
141123814719 11-23 18:54 SOUTHSIDE BLVD AND N GATE PKWY 4 53 TRAFFIC CRASH PERSON INJURED
141123814704 11-23 18:52 7700 JASPER AVE 9 THEFT
141123814684 11-23 18:51 7500 103RD ST 63 DISPUTE
141123814584 11-23 18:50 LEM TURNER RD AND PROSPECT ST 1066 CANCEL
141123814706 11-23 18:48 5200 PICKETT DR 32 BURGLAR ALARM - AUDIBLE
141123814712 11-23 18:48 5000 WESTCHASE CT 20 PROWLER/PEEPING TOM
141123814689 11-23 18:47 1300 W 21ST ST 63 DISPUTE
141123814623 11-23 18:46 1200 LABELLE ST 63 DISPUTE
141123814673 11-23 18:46 BRANNON AVE AND METTO RD 80 PROSTITUTION (ONLY)
141123814709 11-23 18:46 11000 OLD ST AUGUSTINE RD 63 DISPUTE
141123814687 11-23 18:46 8200 KONA AVE 13 SUSPICIOUS PERSON
141123814705 11-23 18:44 8100 HAWTHORNE ST 8 MISSING PERSON
141123814703 11-23 18:44 13900 ATLANTIC BLVD 63 DISPUTE
141123814642 11-23 18:44 6800 BLANCO CT 2288 DOMESTIC DISPUTE WITH/ASSAULT
141123814701 11-23 18:43 5700 LENOX AVE 63 DISPUTE
141123814693 11-23 18:43 S I295 EXPWY AND BEACH BLVD 12 RECKLESS DRIVER
141123814665 11-23 18:42 4300 BULLS BAY HWY 19 ANIMAL INVESTIGATION
141123814696 11-23 18:39 13400 BEACH BLVD 5582 HOLDING ONE FOR SHOPLIFTING
141123814694 11-23 18:38 1300 LACLEDE AVE 60 SUICIDE OR ATTEMPT
141123814692 11-23 18:38 1700 E 28TH ST 32 BURGLAR ALARM - AUDIBLE
141123814666 11-23 18:37 4800 APPLETON AVE 13 SUSPICIOUS PERSON
141123814691 11-23 18:37 5700 FT CAROLINE RD 32X SILENT ALARM (ROBBERY PANIC OR AWARE)
141123814667 11-23 18:35 7000 S OLD KINGS RD 3 HIT AND RUN CRASH
141123814683 11-23 18:35 12300 KENSINGTON LAKES DR 2288 DOMESTIC DISPUTE WITH/ASSAULT
141123814686 11-23 18:34 MARION CIR AND BRANDYWINE ST 13 SUSPICIOUS PERSON
141123814574 11-23 18:33 900 ARLINGWOOD AVE 63 DISPUTE
141123814685 11-23 18:33 OLD ST AUGUSTINE RD AND HOOD RD 1 IMPAIRED/RECKLESS DRIVER
141123814676 11-23 18:32 W UNIVERSITY BLVD AND RICHARD ST 63 DISPUTE
141123814678 11-23 18:32 WONDERWOOD DR AND MAYPORT RD 98 THROWING MISSILES
141123814599 11-23 18:31 4300 WALNUT BEND 76 ASSIST OTHER AGENCY
141123814671 11-23 18:29 1900 WALNUT ST 63 DISPUTE
141123814672 11-23 18:28 2100 INWOOD TER 64 NOISE COMPLAINT
141123814662 11-23 18:28 ARGYLE FOREST BLVD AND BLANDING BLVD 4 AUTO CRASH
141123814559 11-23 18:27 5600 BARNHILL DR 63 DISPUTE
141123814630 11-23 18:26 ORTEGA BLUFF PKWY AND COLLINS RD 4 AUTO CRASH
141123814663 11-23 18:26 1000 TOLKIEN LN 32 BURGLAR ALARM - AUDIBLE
141123814647 11-23 18:25 200 WATER ST 9T THEFT (TELESERVE)
141123814609 11-23 18:23 3000 EDISON AVE 8 MISSING PERSON
141123814603 11-23 18:23 8400 W GATE PKWY 63 DISPUTE
141123814650 11-23 18:22 4400 BEDIVERE RD 63 DISPUTE
141123814648 11-23 18:20 8100 N SABLE WOODS DR 33 DISCHARGING OF FIREARM
141123814644 11-23 18:19 600 STEVENS ST 32 BURGLAR ALARM - AUDIBLE
141123814637 11-23 18:19 8500 CANTON DR 63 DISPUTE
141123814641 11-23 18:18 JAMMES RD AND SAN JUAN AVE 0 13 ARMED SUSPICIOUS PERSON
141123814646 11-23 18:12 6100 RIVIERA MANOR DR 2288 DOMESTIC DISPUTE WITH/ASSAULT
141123814552 11-23 18:12 13500 W ASHFORD WOOD CT 32 BURGLAR ALARM - AUDIBLE
141123814649 11-23 18:12 3500 PHILLIPS HWY 63 DISPUTE
141123814492 11-23 18:11 800 ALDERMAN RD 64 NOISE COMPLAINT
141123814628 11-23 18:11 E BEAVER ST AND N OCEAN ST 2 63 DISPUTE INVOLVING ALCOHOL
141123814645 11-23 18:11 5400 NORWOOD AVE 32X SILENT ALARM (ROBBERY PANIC OR AWARE)
141123814506 11-23 18:09 11700 MARSH ELDER DR 63 DISPUTE
141123814640 11-23 18:08 10800 HARTS RD 1066 CANCEL
141123814570 11-23 18:08 4600 ORTEGA FOREST DR 32 BURGLAR ALARM - AUDIBLE
141123814635 11-23 18:07 GORDEAN RD AND CAHOON RD 76 ASSIST OTHER AGENCY
141123814615 11-23 18:06 600 MONUMENT RD 6388 DISPUTE WITH ASSAULT
141123814613 11-23 18:06 4900 MUSTANG RD 13 SUSPICIOUS PERSON
141123814511 11-23 18:05 12700 BARTRAM PARK BLVD 22 DOMESTIC DISTURBANCE
141123814633 11-23 18:04 1200 W 18TH ST 2288 DOMESTIC DISPUTE WITH/ASSAULT
141123814627 11-23 18:03 6800 NORWOOD AVE 32 BURGLAR ALARM - AUDIBLE
141123814632 11-23 18:02 5800 CASTELLANO AVE 76 ASSIST OTHER AGENCY
141123814545 11-23 18:02 6900 WAIKIKI RD 13 SUSPICIOUS PERSON
141123814611 11-23 18:00 11000 OLD ST AUGUSTINE RD 3 HIT AND RUN CRASH